�v������,���r���O(���x),�����t���O,���r���O(���x),�����t���O,��1(���x),�����t���O,��2���x),�����t���O,�O�C���x,�����t���O,�������x,�����t���O,�C�ۑ�(���x),�����t���O,�C�ۑ�(���x),�����t���O
7/1/2004 0:00,29.3,0,62.5,0,28.1,0,28.7,0,26.4,0,21.8,0,24.5,0,73.8,0
7/1/2004 0:15,29.2,0,63.4,0,28,0,28.6,0,26.3,0,21.9,0,24.3,0,74.3,0
7/1/2004 0:30,29.1,0,63.7,0,28,0,28.6,0,26.2,0,22,0,24.2,0,74.8,0
7/1/2004 0:45,29,0,64,0,27.9,0,28.5,0,26.1,0,22.1,0,24,0,75.3,0
7/1/2004 1:00,29,0,64.6,0,27.8,0,28.4,0,25.9,0,22.2,0,23.9,0,75.8,0
7/1/2004 1:15,28.9,0,64.8,0,27.8,0,28.4,0,25.8,0,22.3,0,23.7,0,75.6,0
7/1/2004 1:30,28.9,0,65.1,0,27.8,0,28.3,0,25.6,0,22.4,0,23.6,0,75.3,0
7/1/2004 1:45,28.8,0,65.2,0,27.7,0,28.2,0,25.5,0,22.5,0,23.4,0,75.1,0
7/1/2004 2:00,28.7,0,65.1,0,27.6,0,28.1,0,25.3,0,22.6,0,23.3,0,74.8,0
7/1/2004 2:15,28.6,0,65.4,0,27.5,0,28.1,0,25.1,0,22.6,0,23.4,0,72.6,0
7/1/2004 2:30,28.5,0,65.3,0,27.4,0,28,0,24.9,0,22.7,0,23.5,0,70.3,0
7/1/2004 2:45,28.4,0,65.5,0,27.3,0,27.9,0,24.8,0,22.8,0,23.6,0,68.1,0
7/1/2004 3:00,28.3,0,65.7,0,27.2,0,27.8,0,24.7,0,23.6,0,23.7,0,65.8,0
7/1/2004 3:15,28.3,0,65.9,0,27.1,0,27.8,0,24.6,0,23.7,0,23.5,0,66.8,0
7/1/2004 3:30,28.2,0,66.3,0,27.1,0,27.7,0,24.6,0,23.7,0,23.3,0,67.8,0
7/1/2004 3:45,28.1,0,66.7,0,27,0,27.6,0,24.5,0,23.8,0,23.2,0,68.8,0
7/1/2004 4:00,28.1,0,67,0,27,0,27.6,0,24.5,0,23.8,0,23,0,69.8,0
7/1/2004 4:15,28,0,67.2,0,27,0,27.5,0,24.5,0,23.9,0,22.8,0,70.6,0
7/1/2004 4:30,28,0,66.9,0,26.9,0,27.5,0,24.4,0,23.9,0,22.7,0,71.3,0
7/1/2004 4:45,27.9,0,67.4,0,26.9,0,27.4,0,24.4,0,24,0,22.5,0,72.1,0
7/1/2004 5:00,27.8,0,67.1,0,26.9,0,27.4,0,24.3,0,23.9,0,22.4,0,72.8,0
7/1/2004 5:15,27.8,0,67.1,0,26.8,0,27.3,0,24.2,0,24,0,22.7,0,71.1,0
7/1/2004 5:30,27.7,0,66.7,0,26.7,0,27.3,0,24.1,0,24,0,22.9,0,69.3,0
7/1/2004 5:45,27.6,0,66.6,0,26.7,0,27.2,0,24.1,0,24.1,0,23.2,0,67.6,0
7/1/2004 6:00,27.6,0,66.4,0,26.6,0,27.1,0,24.1,0,24.1,0,23.5,0,65.8,0
7/1/2004 6:15,27.5,0,66.6,0,26.6,0,27.1,0,24.1,0,23.8,0,24,0,64.1,0
7/1/2004 6:30,27.5,0,67.6,0,26.5,0,27,0,24.2,0,23.8,0,24.5,0,62.3,0
7/1/2004 6:45,27.1,0,67.6,0,26.5,0,27,0,24.4,0,23.9,0,25,0,60.6,0
7/1/2004 7:00,27,0,68.4,0,26.3,0,26.9,0,24.6,0,22.4,0,25.5,0,58.8,0
7/1/2004 7:15,27.2,0,67.2,0,26.3,0,26.9,0,24.8,0,20.7,0,26,0,57.3,0
7/1/2004 7:30,27.6,0,65,0,26.4,0,27,0,25.2,0,20.7,0,26.5,0,55.8,0
7/1/2004 7:45,27.7,0,63.6,0,26.5,0,27,0,25.8,0,20.9,0,27,0,54.3,0
7/1/2004 8:00,27.7,0,61.9,0,26.6,0,27.2,0,26.4,0,20.3,0,27.5,0,52.8,0
7/1/2004 8:15,27.9,0,61.8,0,26.8,0,27.4,0,27.1,0,19.8,0,27.5,0,54.3,0
7/1/2004 8:30,28.1,0,58.5,0,27,0,27.6,0,27.7,0,20,0,27.6,0,55.8,0
7/1/2004 8:45,28.2,0,58.8,0,27.1,0,27.8,0,28.3,0,20.1,0,27.6,0,57.3,0
7/1/2004 9:00,28.3,0,58.2,0,27.4,0,28,0,28.8,0,21.3,0,27.7,0,58.8,0
7/1/2004 9:15,28.5,0,58,0,27.7,0,28.2,0,29.3,0,21.4,0,27.9,0,57.8,0
7/1/2004 9:30,28.8,0,58,0,27.9,0,28.4,0,29.7,0,21.5,0,28.1,0,56.8,0
7/1/2004 9:45,28.8,0,59.4,0,28,0,28.6,0,29.9,0,21.6,0,28.3,0,55.8,0
7/1/2004 10:00,29,0,58.8,0,28.3,0,28.9,0,30.5,0,21.4,0,28.5,0,54.8,0
7/1/2004 10:15,29.2,0,58.4,0,28.5,0,29.2,0,30.9,0,21.4,0,28.9,0,53.5,0
7/1/2004 10:30,29.4,0,58,0,28.6,0,29.3,0,31.3,0,21.5,0,29.2,0,52.3,0
7/1/2004 10:45,29.6,0,56.3,0,28.8,0,29.5,0,31.5,0,21.7,0,29.6,0,51,0
7/1/2004 11:00,29.9,0,55.9,0,29,0,29.7,0,31.9,0,21.8,0,30,0,49.8,0
7/1/2004 11:15,30,0,55.4,0,29.2,0,29.9,0,32.4,0,22.6,0,30.2,0,49.3,0
7/1/2004 11:30,30.1,0,54.3,0,29.3,0,30,0,32.5,0,22.6,0,30.4,0,48.8,0
7/1/2004 11:45,30.2,0,52.6,0,29.5,0,30.2,0,32.8,0,22.7,0,30.6,0,48.3,0
7/1/2004 12:00,30.4,0,49.6,0,29.6,0,30.3,0,33.2,0,22.8,0,30.8,0,47.8,0
7/1/2004 12:15,30.6,0,48.7,0,29.7,0,30.4,0,33.5,0,22.9,0,30.8,0,45.8,0
7/1/2004 12:30,30.7,0,48.1,0,29.8,0,30.6,0,33.8,0,23,0,30.8,0,43.8,0
7/1/2004 12:45,30.8,0,48.2,0,29.8,0,30.8,0,34.1,0,22.3,0,30.8,0,41.8,0
7/1/2004 13:00,31.1,0,48.1,0,30,0,30.9,0,34.2,0,22.4,0,30.8,0,39.8,0
7/1/2004 13:15,31.3,0,47.5,0,30.3,0,31.1,0,34.6,0,22.5,0,31.2,0,40.3,0
7/1/2004 13:30,31.4,0,47,0,30.6,0,31.2,0,34.9,0,22.6,0,31.6,0,40.8,0
7/1/2004 13:45,31.4,0,48.3,0,30.7,0,31.4,0,35,0,22.7,0,32.1,0,41.3,0
7/1/2004 14:00,31.5,0,48.4,0,30.8,0,31.5,0,34.6,0,22.8,0,32.5,0,41.8,0
7/1/2004 14:15,31.5,0,49,0,30.9,0,31.5,0,34.5,0,23.4,0,32.1,0,43.5,0
7/1/2004 14:30,31.6,0,52.5,0,31,0,31.6,0,34.4,0,23.5,0,31.8,0,45.3,0
7/1/2004 14:45,31.7,0,53.2,0,31.1,0,31.5,0,34,0,23.6,0,31.4,0,47,0
7/1/2004 15:00,31.6,0,53.2,0,31,0,31.5,0,33.9,0,23.7,0,31.1,0,48.8,0
7/1/2004 15:15,31.4,0,53.4,0,31,0,31.4,0,33.8,0,23.7,0,30.7,0,49.5,0
7/1/2004 15:30,31.2,0,53.3,0,30.8,0,31.2,0,33.4,0,23.8,0,30.3,0,50.3,0
7/1/2004 15:45,31.1,0,53.1,0,30.7,0,31.1,0,33.1,0,23.9,0,29.9,0,51,0
7/1/2004 16:00,31,0,52.9,0,30.4,0,31,0,33,0,24,0,29.5,0,51.8,0
7/1/2004 16:15,30.8,0,51.8,0,30.2,0,30.8,0,32.8,0,24,0,29,0,51.8,0
7/1/2004 16:30,30.6,0,52.5,0,29.9,0,30.6,0,32.5,0,24.1,0,28.5,0,51.8,0
7/1/2004 16:45,30.4,0,50.7,0,29.7,0,30.4,0,32.1,0,24.2,0,28.1,0,51.8,0
7/1/2004 17:00,30.1,0,50.5,0,29.5,0,30.2,0,31.6,0,24.3,0,27.6,0,51.8,0
7/1/2004 17:15,29.8,0,50.5,0,29.2,0,30,0,31.3,0,23.1,0,27.4,0,50.3,0
7/1/2004 17:30,29.6,0,49.8,0,29,0,29.8,0,30.8,0,22.4,0,27.2,0,48.8,0
7/1/2004 17:45,29.4,0,48.6,0,28.7,0,29.5,0,30.4,0,22.5,0,27.1,0,47.3,0
7/1/2004 18:00,29.2,0,47.9,0,28.5,0,29.4,0,29.8,0,22.5,0,26.9,0,45.8,0
7/1/2004 18:15,29.1,0,45.3,0,28.2,0,29.3,0,29.4,0,22.6,0,26.7,0,44,0
7/1/2004 18:30,28.8,0,41.8,0,27.9,0,29.1,0,29.2,0,22.7,0,26.5,0,42.3,0
7/1/2004 18:45,28.7,0,41.8,0,27.6,0,28.9,0,29,0,22.8,0,26.3,0,40.5,0
7/1/2004 19:00,28.6,0,41.9,0,27.4,0,28.7,0,28.6,0,22.9,0,26.1,0,38.8,0
7/1/2004 19:15,28.3,0,39.5,0,27.3,0,28.6,0,28.3,0,23,0,25.9,0,38.8,0
7/1/2004 19:30,28.2,0,39.5,0,27.1,0,28.4,0,28,0,23.2,0,25.8,0,38.8,0
7/1/2004 19:45,28.3,0,40.6,0,27.1,0,28.3,0,27.8,0,23.3,0,25.6,0,38.8,0
7/1/2004 20:00,28.3,0,40.9,0,27,0,28.2,0,27.5,0,23.4,0,25.5,0,38.8,0
7/1/2004 20:15,28.2,0,40.5,0,27,0,28.1,0,27.4,0,23.1,0,25.2,0,39.8,0
7/1/2004 20:30,28.1,0,40.4,0,26.9,0,28,0,27.2,0,23.1,0,24.9,0,40.8,0
7/1/2004 20:45,28.1,0,40.9,0,26.8,0,27.9,0,26.9,0,23.2,0,24.6,0,41.8,0
7/1/2004 21:00,28,0,41.9,0,26.7,0,27.9,0,26.6,0,23.6,0,24.3,0,42.8,0
7/1/2004 21:15,27.7,0,40.7,0,26.6,0,27.8,0,26.3,0,23.5,0,24.1,0,43.3,0
7/1/2004 21:30,27.5,0,40.6,0,26.4,0,27.7,0,26,0,21.7,0,23.8,0,43.8,0
7/1/2004 21:45,27.5,0,41.5,0,26.3,0,27.6,0,25.9,0,21.8,0,23.6,0,44.3,0
7/1/2004 22:00,27.6,0,41.4,0,26.2,0,27.5,0,25.6,0,21.9,0,23.4,0,44.8,0
7/1/2004 22:15,27.5,0,41.7,0,26.1,0,27.3,0,25.3,0,22.2,0,23.1,0,46,0
7/1/2004 22:30,27.5,0,43.1,0,26,0,27.2,0,25.1,0,22.6,0,22.8,0,47.3,0
7/1/2004 22:45,27.5,0,43.6,0,26.1,0,27,0,24.7,0,22.6,0,22.5,0,48.5,0
7/1/2004 23:00,27.5,0,44.9,0,26.3,0,26.9,0,24.5,0,22.6,0,22.2,0,49.8,0
7/1/2004 23:15,27.4,0,44.9,0,26.4,0,26.8,0,24.3,0,22.7,0,22.1,0,50.5,0
7/1/2004 23:30,27.4,0,45.3,0,26.5,0,26.8,0,24.1,0,22.7,0,22.1,0,51.3,0
7/1/2004 23:45,27.4,0,45.6,0,26.5,0,26.8,0,24,0,22.8,0,22,0,52,0
7/2/2004 0:00,27.4,0,46.1,0,26.5,0,26.7,0,23.9,0,22.8,0,22,0,52.8,0
7/2/2004 0:15,27.3,0,47,0,26.5,0,26.7,0,23.8,0,22.9,0,22,0,52.5,0
7/2/2004 0:30,27.2,0,47.4,0,26.5,0,26.6,0,23.7,0,23,0,22,0,52.3,0
7/2/2004 0:45,27.1,0,47.6,0,26.5,0,26.6,0,23.7,0,23,0,22.1,0,52,0
7/2/2004 1:00,27.1,0,48,0,26.4,0,26.6,0,23.6,0,23.6,0,22.1,0,51.8,0
7/2/2004 1:15,27,0,48.2,0,26.4,0,26.5,0,23.5,0,23.6,0,22,0,52,0
7/2/2004 1:30,27,0,48.7,0,26.4,0,26.5,0,23.4,0,23.7,0,22,0,52.3,0
7/2/2004 1:45,26.9,0,48.9,0,26.4,0,26.4,0,23.3,0,23.7,0,21.9,0,52.5,0
7/2/2004 2:00,26.8,0,49.2,0,26.4,0,26.4,0,23.3,0,23.7,0,21.9,0,52.8,0
7/2/2004 2:15,26.8,0,49.5,0,26.3,0,26.3,0,23.2,0,23.8,0,21.9,0,53,0
7/2/2004 2:30,26.7,0,49.7,0,26.3,0,26.3,0,23.1,0,23.8,0,21.9,0,53.3,0
7/2/2004 2:45,26.6,0,49.7,0,26.3,0,26.2,0,23,0,23.9,0,21.9,0,53.5,0
7/2/2004 3:00,26.6,0,50,0,26.2,0,26.1,0,22.9,0,23.9,0,21.9,0,53.8,0
7/2/2004 3:15,26.5,0,50,0,26.2,0,26.1,0,22.9,0,24,0,21.8,0,55.3,0
7/2/2004 3:30,26.5,0,50,0,26.2,0,26,0,22.8,0,23.9,0,21.7,0,56.8,0
7/2/2004 3:45,26.4,0,50.1,0,26.1,0,26,0,22.7,0,23.9,0,21.6,0,58.3,0
7/2/2004 4:00,26.3,0,50.4,0,26.1,0,26,0,22.7,0,24,0,21.5,0,59.8,0
7/2/2004 4:15,26.3,0,50.7,0,26,0,25.9,0,22.7,0,24,0,21.4,0,60,0
7/2/2004 4:30,26.2,0,51.1,0,25.9,0,25.8,0,22.7,0,24,0,21.3,0,60.3,0
7/2/2004 4:45,26.2,0,51.3,0,25.9,0,25.8,0,22.7,0,24.1,0,21.3,0,60.5,0
7/2/2004 5:00,26.1,0,51.5,0,25.9,0,25.7,0,22.7,0,24.1,0,21.2,0,60.8,0
7/2/2004 5:15,26.1,0,52,0,25.9,0,25.7,0,22.6,0,24.1,0,21.3,0,60.3,0
7/2/2004 5:30,26.1,0,52.2,0,25.8,0,25.6,0,22.7,0,24.2,0,21.4,0,59.8,0
7/2/2004 5:45,26,0,52.4,0,25.8,0,25.6,0,22.7,0,24.2,0,21.6,0,59.3,0
7/2/2004 6:00,26,0,52.4,0,25.8,0,25.5,0,22.7,0,24.2,0,21.7,0,58.8,0
7/2/2004 6:15,25.9,0,52.6,0,25.7,0,25.5,0,22.6,0,24.3,0,21.9,0,59,0
7/2/2004 6:30,25.9,0,54.3,0,25.7,0,25.5,0,22.7,0,23.8,0,22.1,0,59.3,0
7/2/2004 6:45,25.4,0,52.5,0,25.4,0,25.4,0,22.8,0,21.1,0,22.4,0,59.5,0
7/2/2004 7:00,25.5,0,51.9,0,25,0,25.4,0,23,0,21.1,0,22.6,0,59.8,0
7/2/2004 7:15,25.7,0,52.1,0,24.8,0,25.4,0,23.1,0,20.4,0,22.8,0,58.8,0
7/2/2004 7:30,25.9,0,51.1,0,24.8,0,25.4,0,23.5,0,20.5,0,23,0,57.8,0
7/2/2004 7:45,25.9,0,50.1,0,24.8,0,25.4,0,24.2,0,20.7,0,23.2,0,56.8,0
7/2/2004 8:00,26,0,50.9,0,24.8,0,25.5,0,24.8,0,20.8,0,23.4,0,55.8,0
7/2/2004 8:15,26.1,0,50.8,0,24.8,0,25.6,0,25.5,0,20.9,0,23.9,0,54.3,0
7/2/2004 8:30,26.3,0,50.3,0,25,0,25.7,0,26.1,0,21,0,24.3,0,52.8,0
7/2/2004 8:45,26.5,0,49.5,0,25.2,0,25.9,0,26.5,0,21.5,0,24.8,0,51.3,0
7/2/2004 9:00,26.6,0,47.3,0,25.4,0,26,0,27.1,0,21.5,0,25.3,0,49.8,0
7/2/2004 9:15,26.6,0,46.2,0,25.6,0,26.2,0,27.5,0,22,0,25.6,0,48.8,0
7/2/2004 9:30,26.8,0,47.1,0,25.9,0,26.4,0,27.9,0,22,0,25.9,0,47.8,0
7/2/2004 9:45,27.1,0,46.3,0,26.1,0,26.6,0,28.3,0,22.1,0,26.3,0,46.8,0
7/2/2004 10:00,27.3,0,46.8,0,26.2,0,26.8,0,28.7,0,22.2,0,26.6,0,45.8,0
7/2/2004 10:15,27.5,0,46,0,26.5,0,27,0,29.1,0,22.2,0,26.9,0,44.8,0
7/2/2004 10:30,27.6,0,45.4,0,26.7,0,27.2,0,29.5,0,20.9,0,27.1,0,43.8,0
7/2/2004 10:45,27.7,0,45.5,0,26.9,0,27.4,0,29.7,0,21,0,27.4,0,42.8,0
7/2/2004 11:00,27.9,0,44.4,0,27,0,27.6,0,30,0,22.2,0,27.7,0,41.8,0
7/2/2004 11:15,28.1,0,44.1,0,27.2,0,27.8,0,30.2,0,22.2,0,27.9,0,41,0
7/2/2004 11:30,28.2,0,43.9,0,27.4,0,27.9,0,30.5,0,22.3,0,28.2,0,40.3,0
7/2/2004 11:45,28.5,0,43.6,0,27.6,0,28.1,0,30.9,0,22.4,0,28.4,0,39.5,0
7/2/2004 12:00,28.7,0,43.9,0,27.8,0,28.4,0,31.3,0,22.5,0,28.7,0,38.8,0
7/2/2004 12:15,28.8,0,44.4,0,28,0,28.6,0,31.6,0,22.5,0,28.7,0,39,0
7/2/2004 12:30,29.1,0,43.9,0,28.3,0,28.8,0,31.8,0,22.6,0,28.6,0,39.3,0
7/2/2004 12:45,29.4,0,43.4,0,28.5,0,29,0,31.9,0,22.7,0,28.6,0,39.5,0
7/2/2004 13:00,29.6,0,42,0,28.7,0,29.1,0,32.3,0,22.8,0,28.6,0,39.8,0
7/2/2004 13:15,29.6,0,42.5,0,28.9,0,29.3,0,32.6,0,22.8,0,29,0,40,0
7/2/2004 13:30,29.8,0,42.4,0,29,0,29.4,0,32.8,0,21.8,0,29.5,0,40.3,0
7/2/2004 13:45,29.9,0,43.2,0,29.2,0,29.5,0,32.8,0,21.8,0,29.9,0,40.5,0
7/2/2004 14:00,29.8,0,43.2,0,29.3,0,29.6,0,32.9,0,22.4,0,30.4,0,40.8,0
7/2/2004 14:15,29.9,0,43.4,0,29.4,0,29.7,0,33,0,22.5,0,30.5,0,40.5,0
7/2/2004 14:30,30,0,43.6,0,29.5,0,29.8,0,33.1,0,22.6,0,30.5,0,40.3,0
7/2/2004 14:45,30.1,0,43.2,0,29.5,0,29.9,0,33.2,0,22.6,0,30.6,0,40,0
7/2/2004 15:00,30.1,0,44,0,29.6,0,29.9,0,33.4,0,22.7,0,30.7,0,39.8,0
7/2/2004 15:15,30.1,0,43.7,0,29.6,0,30,0,33.4,0,22.8,0,30.5,0,40,0
7/2/2004 15:30,30.2,0,43.7,0,29.7,0,30,0,33.5,0,22.9,0,30.3,0,40.3,0
7/2/2004 15:45,30.3,0,44.6,0,29.7,0,30,0,33.5,0,23,0,30.2,0,40.5,0
7/2/2004 16:00,30.4,0,44.6,0,29.7,0,29.9,0,33.4,0,23.6,0,30,0,40.8,0
7/2/2004 16:15,30.5,0,44.6,0,29.6,0,29.9,0,33.5,0,23.6,0,29.8,0,41.3,0
7/2/2004 16:30,30.4,0,44.3,0,29.6,0,29.9,0,33.5,0,23.7,0,29.6,0,41.8,0
7/2/2004 16:45,30.3,0,44.5,0,29.6,0,29.8,0,33.4,0,23.8,0,29.4,0,42.3,0
7/2/2004 17:00,30.3,0,44.5,0,29.6,0,29.8,0,33,0,23.8,0,29.2,0,42.8,0
7/2/2004 17:15,30.2,0,44.3,0,29.5,0,29.7,0,32.7,0,23.9,0,28.9,0,43.5,0
7/2/2004 17:30,30.1,0,44.3,0,29.4,0,29.6,0,32.3,0,24,0,28.7,0,44.3,0
7/2/2004 17:45,30.1,0,44.2,0,29.3,0,29.5,0,31.8,0,23,0,28.4,0,45,0
7/2/2004 18:00,29.8,0,44.6,0,29.1,0,29.3,0,31.3,0,23.1,0,28.2,0,45.8,0
7/2/2004 18:15,29.4,0,44.8,0,28.9,0,29.2,0,30.8,0,22.6,0,27.5,0,47,0
7/2/2004 18:30,29.2,0,45.4,0,28.5,0,28.9,0,30.4,0,22.7,0,26.9,0,48.3,0
7/2/2004 18:45,29,0,45.4,0,28.3,0,28.7,0,29.8,0,22.5,0,26.2,0,49.5,0
7/2/2004 19:00,29.2,0,45.7,0,28.1,0,28.5,0,29.5,0,22.6,0,25.6,0,50.8,0
7/2/2004 19:15,29.1,0,44.9,0,28,0,28.2,0,29,0,22.7,0,25.2,0,51.8,0
7/2/2004 19:30,28.9,0,45.8,0,27.7,0,27.8,0,28.6,0,22.8,0,24.8,0,52.8,0
7/2/2004 19:45,28.9,0,46.1,0,27.5,0,27.6,0,28.3,0,22,0,24.4,0,53.8,0
7/2/2004 20:00,28.8,0,46.5,0,27.4,0,27.4,0,27.7,0,22.4,0,24,0,54.8,0
7/2/2004 20:15,28.7,0,46.4,0,27.3,0,27.3,0,27.1,0,22.4,0,23.6,0,55.3,0
7/2/2004 20:30,28.6,0,46.4,0,27.1,0,27,0,26.6,0,22.5,0,23.3,0,55.8,0
7/2/2004 20:45,28.3,0,46.5,0,26.8,0,26.6,0,26.2,0,22.6,0,22.9,0,56.3,0
7/2/2004 21:00,28.2,0,46.6,0,26.6,0,26.4,0,25.8,0,23.2,0,22.6,0,56.8,0
7/2/2004 21:15,28.1,0,46.7,0,26.4,0,26.3,0,25.5,0,23.3,0,22.4,0,57,0
7/2/2004 21:30,27.9,0,46.7,0,26.2,0,26.3,0,25.2,0,23.3,0,22.2,0,57.3,0
7/2/2004 21:45,27.7,0,46.6,0,26,0,26.2,0,24.9,0,22.7,0,22,0,57.5,0
7/2/2004 22:00,27.6,0,46.8,0,25.8,0,26.1,0,24.6,0,22.7,0,21.8,0,57.8,0
7/2/2004 22:15,27.7,0,46.6,0,25.7,0,26,0,24.4,0,22.3,0,21.6,0,57.8,0
7/2/2004 22:30,27.8,0,46,0,25.5,0,26,0,24.2,0,22.4,0,21.5,0,57.8,0
7/2/2004 22:45,27.7,0,45.7,0,25.5,0,26,0,23.9,0,22.3,0,21.3,0,57.8,0
7/2/2004 23:00,27.6,0,45.8,0,25.7,0,26,0,23.8,0,22.4,0,21.2,0,57.8,0
7/2/2004 23:15,27.5,0,45.6,0,25.9,0,26,0,23.6,0,22.4,0,21,0,58.3,0
7/2/2004 23:30,27.4,0,45.4,0,25.9,0,25.9,0,23.4,0,22.5,0,20.8,0,58.8,0
7/2/2004 23:45,27.3,0,45.4,0,25.9,0,25.9,0,23.2,0,22.5,0,20.7,0,59.3,0
7/3/2004 0:00,27.2,0,45.6,0,25.9,0,25.9,0,22.9,0,22.6,0,20.5,0,59.8,0
7/3/2004 0:15,27.1,0,45.8,0,25.9,0,25.8,0,22.6,0,22.7,0,20.4,0,59.8,0
7/3/2004 0:30,27,0,46,0,25.9,0,25.8,0,22.5,0,22.7,0,20.2,0,59.8,0
7/3/2004 0:45,26.9,0,46.4,0,25.9,0,25.8,0,22.3,0,22.8,0,20.1,0,59.8,0
7/3/2004 1:00,26.8,0,47.4,0,25.8,0,25.8,0,22.3,0,22.8,0,20,0,59.8,0
7/3/2004 1:15,26.7,0,47.8,0,25.7,0,25.8,0,22.2,0,22.9,0,19.8,0,60,0
7/3/2004 1:30,26.6,0,47.9,0,25.7,0,25.7,0,22.1,0,23.5,0,19.7,0,60.3,0
7/3/2004 1:45,26.5,0,48.1,0,25.6,0,25.7,0,21.9,0,23.5,0,19.5,0,60.5,0
7/3/2004 2:00,26.4,0,49.1,0,25.5,0,25.6,0,21.8,0,23.6,0,19.4,0,60.8,0
7/3/2004 2:15,26.4,0,49.5,0,25.5,0,25.6,0,21.7,0,23.6,0,19.3,0,61.3,0
7/3/2004 2:30,26.3,0,49.8,0,25.4,0,25.5,0,21.5,0,23.6,0,19.3,0,61.8,0
7/3/2004 2:45,26.2,0,50,0,25.4,0,25.5,0,21.4,0,23.7,0,19.2,0,62.3,0
7/3/2004 3:00,26.1,0,50.2,0,25.2,0,25.5,0,21.3,0,23.7,0,19.2,0,62.8,0
7/3/2004 3:15,26.1,0,50.3,0,25.1,0,25.4,0,21.1,0,23.7,0,19.1,0,63.8,0
7/3/2004 3:30,26,0,50.4,0,25,0,25.3,0,20.9,0,23.8,0,19,0,64.8,0
7/3/2004 3:45,25.9,0,50.6,0,25,0,25.3,0,20.8,0,23.8,0,18.9,0,65.8,0
7/3/2004 4:00,25.8,0,50.7,0,24.9,0,25.2,0,20.7,0,23.8,0,18.8,0,66.8,0
7/3/2004 4:15,25.7,0,50.7,0,24.8,0,25.2,0,20.5,0,23.9,0,18.8,0,67.6,0
7/3/2004 4:30,25.6,0,50.8,0,24.7,0,25.1,0,20.4,0,23.9,0,18.8,0,68.3,0
7/3/2004 4:45,25.5,0,51,0,24.7,0,25,0,20.3,0,24,0,18.8,0,69.1,0
7/3/2004 5:00,25.4,0,51.1,0,24.6,0,25,0,20.1,0,24,0,18.8,0,69.8,0
7/3/2004 5:15,25.3,0,51.4,0,24.5,0,24.9,0,20.1,0,24,0,18.9,0,69.3,0
7/3/2004 5:30,25.3,0,51.5,0,24.5,0,24.9,0,20.1,0,24.1,0,19,0,68.8,0
7/3/2004 5:45,25.2,0,51.6,0,24.4,0,24.8,0,20.2,0,24.1,0,19.2,0,68.3,0
7/3/2004 6:00,25.1,0,51.5,0,24.4,0,24.8,0,20.2,0,24.1,0,19.3,0,67.8,0
7/3/2004 6:15,25.1,0,51.6,0,24.4,0,24.7,0,20.4,0,24.1,0,19.6,0,66.3,0
7/3/2004 6:30,25,0,51.3,0,24.4,0,24.7,0,20.5,0,24.1,0,19.9,0,64.8,0
7/3/2004 6:45,24.7,0,51.1,0,24.4,0,24.7,0,20.7,0,22.9,0,20.2,0,63.3,0
7/3/2004 7:00,24.6,0,52.4,0,24.2,0,24.6,0,20.8,0,21.2,0,20.5,0,61.8,0
7/3/2004 7:15,24.7,0,52.2,0,24,0,24.6,0,21.1,0,19.7,0,21.1,0,60.8,0
7/3/2004 7:30,24.9,0,51.6,0,23.8,0,24.6,0,21.5,0,19.7,0,21.7,0,59.8,0
7/3/2004 7:45,24.9,0,51.2,0,23.9,0,24.6,0,22.4,0,21.5,0,22.3,0,58.8,0
7/3/2004 8:00,25.1,0,52.2,0,23.9,0,24.7,0,23.1,0,21.5,0,22.9,0,57.8,0
7/3/2004 8:15,25,0,52.8,0,24,0,24.8,0,23.9,0,21.6,0,23.2,0,56.5,0
7/3/2004 8:30,25.2,0,52.5,0,24.1,0,24.9,0,24.5,0,21.7,0,23.6,0,55.3,0
7/3/2004 8:45,25.5,0,52.9,0,24.4,0,25.1,0,25.4,0,21.8,0,23.9,0,54,0
7/3/2004 9:00,25.8,0,52.7,0,24.6,0,25.3,0,25.8,0,21.8,0,24.3,0,52.8,0
7/3/2004 9:15,26.1,0,52.5,0,24.8,0,25.5,0,26.4,0,21.8,0,24.7,0,51.8,0
7/3/2004 9:30,26,0,52.7,0,25.1,0,25.7,0,26.9,0,22.4,0,25.2,0,50.8,0
7/3/2004 9:45,26.3,0,52.2,0,25.4,0,26,0,27.4,0,22.4,0,25.6,0,49.8,0
7/3/2004 10:00,26.4,0,51.9,0,25.6,0,26.2,0,27.7,0,22.5,0,26.1,0,48.8,0
7/3/2004 10:15,26.6,0,52.1,0,25.8,0,26.4,0,28,0,21.3,0,26.4,0,48.3,0
7/3/2004 10:30,26.9,0,51.9,0,26.2,0,26.7,0,28.4,0,20.1,0,26.8,0,47.8,0
7/3/2004 10:45,27.2,0,50.9,0,26.4,0,27,0,28.8,0,21.4,0,27.1,0,47.3,0
7/3/2004 11:00,27.5,0,50.5,0,26.8,0,27.3,0,29,0,21.5,0,27.5,0,46.8,0
7/3/2004 11:15,27.8,0,50.1,0,27.1,0,27.6,0,29.5,0,21.6,0,27.8,0,46.3,0
7/3/2004 11:30,28,0,49.3,0,27.4,0,27.8,0,29.8,0,21.7,0,28.1,0,45.8,0
7/3/2004 11:45,28.2,0,49.4,0,27.6,0,28.1,0,30.2,0,22.5,0,28.4,0,45.3,0
7/3/2004 12:00,28.5,0,49.5,0,27.7,0,28.4,0,30.5,0,22.6,0,28.7,0,44.8,0
7/3/2004 12:15,28.7,0,47.6,0,27.9,0,28.6,0,30.8,0,21.9,0,29,0,44.5,0
7/3/2004 12:30,29,0,47.8,0,28.1,0,28.8,0,31,0,22,0,29.2,0,44.3,0
7/3/2004 12:45,29.1,0,47.2,0,28.3,0,29,0,31.4,0,22.1,0,29.5,0,44,0
7/3/2004 13:00,29.3,0,46.6,0,28.6,0,29.1,0,31.7,0,22.2,0,29.8,0,43.8,0
7/3/2004 13:15,29.6,0,46.4,0,28.8,0,29.3,0,32,0,22.2,0,29.8,0,43.8,0
7/3/2004 13:30,29.6,0,46.4,0,29,0,29.5,0,32.3,0,22.3,0,29.7,0,43.8,0
7/3/2004 13:45,29.7,0,46.2,0,29.1,0,29.5,0,32.2,0,22.4,0,29.7,0,43.8,0
7/3/2004 14:00,29.8,0,46.5,0,29.2,0,29.6,0,32.5,0,22.5,0,29.7,0,43.8,0
7/3/2004 14:15,29.9,0,46.7,0,29.4,0,29.6,0,32.7,0,22.6,0,29.8,0,43.3,0
7/3/2004 14:30,30,0,46.7,0,29.5,0,29.7,0,32.8,0,22.7,0,30,0,42.8,0
7/3/2004 14:45,30,0,46.5,0,29.7,0,29.8,0,33,0,22.7,0,30.1,0,42.3,0
7/3/2004 15:00,30.1,0,46.2,0,29.7,0,29.9,0,33,0,23.5,0,30.3,0,41.8,0
7/3/2004 15:15,30.3,0,46.2,0,29.8,0,30,0,33,0,22.2,0,30.3,0,42,0
7/3/2004 15:30,30.5,0,45.7,0,29.8,0,30.1,0,33.2,0,22.2,0,30.4,0,42.3,0
7/3/2004 15:45,30.5,0,45.5,0,29.8,0,30.1,0,33.2,0,22.4,0,30.4,0,42.5,0
7/3/2004 16:00,30.5,0,45.7,0,29.8,0,30.1,0,33.1,0,21.2,0,30.5,0,42.8,0
7/3/2004 16:15,30.5,0,45.7,0,29.8,0,30,0,33,0,21.3,0,30.1,0,43.8,0
7/3/2004 16:30,30.2,0,47.9,0,29.7,0,29.9,0,32.6,0,21.8,0,29.7,0,44.8,0
7/3/2004 16:45,30.1,0,47.9,0,29.6,0,29.8,0,32.3,0,21.8,0,29.3,0,45.8,0
7/3/2004 17:00,29.9,0,47.3,0,29.4,0,29.7,0,32.1,0,22.5,0,28.9,0,46.8,0
7/3/2004 17:15,29.7,0,46.4,0,29.2,0,29.4,0,31.6,0,22.5,0,28.5,0,46.3,0
7/3/2004 17:30,29.4,0,45.5,0,29,0,29.2,0,31.2,0,22.6,0,28.1,0,45.8,0
7/3/2004 17:45,29.3,0,45.1,0,28.8,0,29,0,30.6,0,22.7,0,27.7,0,45.3,0
7/3/2004 18:00,29,0,44.9,0,28.5,0,28.8,0,30.2,0,22.8,0,27.3,0,44.8,0
7/3/2004 18:15,28.8,0,43.7,0,28.2,0,28.6,0,29.7,0,22.8,0,26.8,0,45.5,0
7/3/2004 18:30,28.8,0,43.8,0,27.9,0,28.4,0,29.4,0,22.7,0,26.4,0,46.3,0
7/3/2004 18:45,28.8,0,43.6,0,27.6,0,28.2,0,29,0,22.7,0,25.9,0,47,0
7/3/2004 19:00,28.5,0,43.8,0,27.4,0,28,0,28.5,0,22.8,0,25.5,0,47.8,0
7/3/2004 19:15,28.5,0,44,0,27.1,0,27.8,0,28.1,0,23,0,25.2,0,48,0
7/3/2004 19:30,28.2,0,43.8,0,26.9,0,27.6,0,27.7,0,23.1,0,24.9,0,48.3,0
7/3/2004 19:45,28.1,0,43.8,0,26.8,0,27.4,0,27.4,0,23.1,0,24.7,0,48.5,0
7/3/2004 20:00,28.1,0,43.2,0,26.7,0,27.2,0,27.1,0,23.2,0,24.4,0,48.8,0
7/3/2004 20:15,27.9,0,43.2,0,26.6,0,27,0,26.8,0,23.2,0,24,0,48.8,0
7/3/2004 20:30,27.8,0,43.2,0,26.5,0,26.8,0,26.4,0,23.3,0,23.7,0,48.8,0
7/3/2004 20:45,27.5,0,43.3,0,26.3,0,26.6,0,26.1,0,23.4,0,23.3,0,48.8,0
7/3/2004 21:00,27.4,0,43,0,26.1,0,26.5,0,25.8,0,23.4,0,23,0,48.8,0
7/3/2004 21:15,27.3,0,43.1,0,26,0,26.4,0,25.4,0,23.5,0,22.8,0,50,0
7/3/2004 21:30,27,0,42.7,0,25.8,0,26.2,0,25.1,0,22,0,22.6,0,51.3,0
7/3/2004 21:45,27.2,0,43.3,0,25.7,0,26.1,0,24.8,0,22,0,22.4,0,52.5,0
7/3/2004 22:00,27.2,0,42.9,0,25.6,0,26.1,0,24.6,0,22.1,0,22.2,0,53.8,0
7/3/2004 22:15,27.2,0,43.3,0,25.5,0,26,0,24.4,0,22.1,0,22,0,54.5,0
7/3/2004 22:30,27.2,0,43.7,0,25.4,0,26,0,24.2,0,22.4,0,21.8,0,55.3,0
7/3/2004 22:45,27.2,0,43.7,0,25.5,0,25.9,0,24,0,21.4,0,21.6,0,56,0
7/3/2004 23:00,27.2,0,44.2,0,25.7,0,25.9,0,23.9,0,21.4,0,21.4,0,56.8,0
7/3/2004 23:15,27.2,0,44.7,0,25.8,0,25.9,0,23.7,0,21.5,0,21.2,0,57,0
7/3/2004 23:30,27.1,0,45.3,0,25.7,0,25.9,0,23.5,0,21.6,0,21,0,57.3,0
7/3/2004 23:45,27,0,45.8,0,25.7,0,25.9,0,23.3,0,21.6,0,20.9,0,57.5,0
7/4/2004 0:00,26.9,0,46.4,0,25.6,0,25.8,0,23.1,0,21.7,0,20.7,0,57.8,0
7/4/2004 0:15,26.8,0,46.5,0,25.6,0,25.8,0,22.9,0,21.8,0,20.7,0,57.8,0
7/4/2004 0:30,26.8,0,46.8,0,25.5,0,25.7,0,22.8,0,21.8,0,20.6,0,57.8,0
7/4/2004 0:45,26.7,0,47.1,0,25.4,0,25.7,0,22.6,0,21.9,0,20.6,0,57.8,0
7/4/2004 1:00,26.6,0,47.4,0,25.4,0,25.6,0,22.5,0,22,0,20.6,0,57.8,0
7/4/2004 1:15,26.5,0,47.7,0,25.3,0,25.6,0,22.3,0,22,0,20.4,0,59.6,0
7/4/2004 1:30,26.4,0,48.1,0,25.2,0,25.5,0,22.1,0,22.1,0,20.1,0,61.3,0
7/4/2004 1:45,26.4,0,48.4,0,25.2,0,25.5,0,22,0,22.2,0,19.9,0,63.1,0
7/4/2004 2:00,26.3,0,48.5,0,25.1,0,25.5,0,21.9,0,22.2,0,19.7,0,64.8,0
7/4/2004 2:15,26.2,0,48.6,0,25,0,25.4,0,21.7,0,22.3,0,19.5,0,65.6,0
7/4/2004 2:30,26.1,0,48.9,0,25,0,25.4,0,21.5,0,23.5,0,19.4,0,66.3,0
7/4/2004 2:45,26,0,49.3,0,24.9,0,25.3,0,21.3,0,23.5,0,19.2,0,67.1,0
7/4/2004 3:00,25.9,0,49.6,0,24.9,0,25.3,0,21.1,0,23.5,0,19.1,0,67.8,0
7/4/2004 3:15,25.9,0,49.7,0,24.8,0,25.3,0,21,0,23.5,0,19,0,68.6,0
7/4/2004 3:30,25.8,0,50.1,0,24.7,0,25.2,0,20.9,0,23.5,0,18.9,0,69.3,0
7/4/2004 3:45,25.7,0,50.3,0,24.7,0,25.1,0,20.7,0,23.6,0,18.9,0,70.1,0
7/4/2004 4:00,25.6,0,50.6,0,24.6,0,25.1,0,20.6,0,23.6,0,18.8,0,70.8,0
7/4/2004 4:15,25.5,0,50.9,0,24.6,0,25.1,0,20.5,0,23.6,0,18.8,0,71.3,0
7/4/2004 4:30,25.4,0,51.1,0,24.5,0,25,0,20.3,0,23.7,0,18.7,0,71.8,0
7/4/2004 4:45,25.3,0,51.3,0,24.4,0,25,0,20.2,0,23.7,0,18.7,0,72.3,0
7/4/2004 5:00,25.2,0,51.5,0,24.4,0,24.9,0,20.2,0,23.7,0,18.7,0,72.8,0
7/4/2004 5:15,25.2,0,51.7,0,24.3,0,24.9,0,20,0,23.7,0,18.9,0,72.1,0
7/4/2004 5:30,25.1,0,51.9,0,24.3,0,24.8,0,20,0,23.8,0,19.1,0,71.3,0
7/4/2004 5:45,25,0,52.1,0,24.3,0,24.7,0,20,0,23.8,0,19.3,0,70.6,0
7/4/2004 6:00,24.9,0,52.3,0,24.2,0,24.7,0,20.1,0,23.8,0,19.5,0,69.8,0
7/4/2004 6:15,24.9,0,52.6,0,24.2,0,24.7,0,20.2,0,23.9,0,19.9,0,67.3,0
7/4/2004 6:30,24.8,0,53.9,0,24.2,0,24.7,0,20.3,0,23.9,0,20.4,0,64.8,0
7/4/2004 6:45,24.7,0,55.5,0,24.3,0,24.6,0,20.5,0,21.8,0,20.8,0,62.3,0
7/4/2004 7:00,24.5,0,56.2,0,24.3,0,24.6,0,20.7,0,21.5,0,21.3,0,59.8,0
7/4/2004 7:15,24.3,0,57,0,24.2,0,24.6,0,21,0,19.7,0,21.7,0,58.8,0
7/4/2004 7:30,24.4,0,57.1,0,24.2,0,24.6,0,21.4,0,19.7,0,22.1,0,57.8,0
7/4/2004 7:45,24.5,0,56.5,0,24.2,0,24.7,0,22.2,0,19.8,0,22.5,0,56.8,0
7/4/2004 8:00,24.8,0,55.8,0,24.1,0,24.7,0,22.9,0,19.8,0,22.9,0,55.8,0
7/4/2004 8:15,25.1,0,55.2,0,24.2,0,24.8,0,23.7,0,19.9,0,23.4,0,55,0
7/4/2004 8:30,25.4,0,55,0,24.3,0,24.9,0,24.4,0,20.1,0,24,0,54.3,0
7/4/2004 8:45,25.7,0,56.3,0,24.5,0,25.2,0,24.9,0,20,0,24.5,0,53.5,0
7/4/2004 9:00,25.9,0,54.8,0,24.7,0,25.4,0,25.5,0,20.8,0,25.1,0,52.8,0
7/4/2004 9:15,26.1,0,54.4,0,25,0,25.6,0,26.3,0,20.9,0,25.6,0,51.5,0
7/4/2004 9:30,26.3,0,53.8,0,25.3,0,25.8,0,27,0,20.9,0,26.1,0,50.3,0
7/4/2004 9:45,26.7,0,53.7,0,25.7,0,26.1,0,27.5,0,21,0,26.7,0,49,0
7/4/2004 10:00,27,0,52.2,0,26.2,0,26.4,0,27.9,0,21.8,0,27.2,0,47.8,0
7/4/2004 10:15,27.1,0,51.5,0,26.4,0,26.6,0,28.3,0,21.9,0,27.4,0,47.3,0
7/4/2004 10:30,27.3,0,51.9,0,26.6,0,27,0,28.8,0,22.4,0,27.6,0,46.8,0
7/4/2004 10:45,27.6,0,50.9,0,26.9,0,27.3,0,29.1,0,22.4,0,27.9,0,46.3,0
7/4/2004 11:00,28,0,50.9,0,27.3,0,27.6,0,29.7,0,22.5,0,28.1,0,45.8,0
7/4/2004 11:15,28.5,0,48.9,0,27.6,0,27.9,0,30.3,0,22.6,0,28.5,0,45,0
7/4/2004 11:30,28.7,0,49.2,0,27.9,0,28.2,0,30.7,0,22.6,0,29,0,44.3,0
7/4/2004 11:45,28.8,0,48.9,0,28.1,0,28.5,0,30.8,0,23.2,0,29.4,0,43.5,0
7/4/2004 12:00,29.1,0,47.4,0,28.4,0,28.8,0,31.4,0,23.1,0,29.9,0,42.8,0
7/4/2004 12:15,29.3,0,47.2,0,28.7,0,29,0,31.7,0,22.1,0,29.9,0,42.8,0
7/4/2004 12:30,29.7,0,46.7,0,28.9,0,29.2,0,32,0,21.9,0,30,0,42.8,0
7/4/2004 12:45,29.7,0,46.5,0,29.1,0,29.4,0,32.2,0,20,0,30,0,42.8,0